TimeEST,TemperatureF,Dew PointF,Humidity,Sea Level PressureIn,VisibilityMPH,Wind Direction,Wind SpeedMPH,Gust SpeedMPH,PrecipitationIn,Events,Conditions,WindDirDegrees,DateUTC
12:53 AM,39.0,36.0,89,30.01,10.0,Calm,Calm,-,N/A,,Clear,0,2013-03-03 05:53:00
1:53 AM,39.9,37.0,89,30.01,10.0,Calm,Calm,-,N/A,,Clear,0,2013-03-03 06:53:00
2:53 AM,39.0,35.1,86,29.99,10.0,Calm,Calm,-,N/A,,Clear,0,2013-03-03 07:53:00
3:53 AM,41.0,37.0,86,29.99,10.0,Calm,Calm,-,N/A,,Mostly Cloudy,0,2013-03-03 08:53:00
4:53 AM,42.1,32.0,67,30.00,10.0,NNW,9.2,-,N/A,,Partly Cloudy,330,2013-03-03 09:53:00
5:53 AM,41.0,30.0,65,30.02,10.0,NW,6.9,-,N/A,,Partly Cloudy,310,2013-03-03 10:53:00
6:53 AM,39.9,28.9,65,30.04,10.0,NW,6.9,-,N/A,,Mostly Cloudy,320,2013-03-03 11:53:00
7:53 AM,43.0,30.0,60,30.05,10.0,NW,9.2,-,N/A,,Clear,320,2013-03-03 12:53:00
8:53 AM,46.9,28.0,48,30.07,10.0,NW,10.4,-,N/A,,Partly Cloudy,320,2013-03-03 13:53:00
9:53 AM,51.1,30.0,44,30.07,10.0,NW,9.2,-,N/A,,Scattered Clouds,310,2013-03-03 14:53:00
10:53 AM,53.1,30.0,41,30.05,10.0,WNW,12.7,20.7,N/A,,Clear,300,2013-03-03 15:53:00
11:53 AM,55.9,32.0,40,30.04,10.0,WNW,13.8,19.6,N/A,,Partly Cloudy,290,2013-03-03 16:53:00
12:53 PM,59.0,32.0,36,30.02,10.0,West,17.3,23.0,N/A,,Partly Cloudy,280,2013-03-03 17:53:00
1:53 PM,60.1,33.1,36,29.99,10.0,WNW,13.8,23.0,N/A,,Partly Cloudy,300,2013-03-03 18:53:00
2:53 PM,60.1,33.1,36,29.98,10.0,WNW,12.7,25.3,N/A,,Partly Cloudy,290,2013-03-03 19:53:00
3:53 PM,60.1,32.0,35,29.99,10.0,WNW,17.3,27.6,N/A,,Clear,290,2013-03-03 20:53:00
4:53 PM,57.0,32.0,39,30.01,10.0,West,15.0,24.2,N/A,,Scattered Clouds,280,2013-03-03 21:53:00
5:53 PM,55.0,32.0,42,30.03,10.0,West,18.4,26.5,N/A,,Scattered Clouds,280,2013-03-03 22:53:00
6:53 PM,51.1,33.1,50,30.06,10.0,West,6.9,-,N/A,,Mostly Cloudy,280,2013-03-03 23:53:00
7:53 PM,48.9,34.0,56,30.09,10.0,WNW,8.1,-,N/A,,Partly Cloudy,300,2013-03-04 00:53:00
8:53 PM,44.1,33.1,65,30.11,10.0,WNW,5.8,-,N/A,,Clear,290,2013-03-04 01:53:00
9:53 PM,39.2,30.2,70,30.14,10.0,West,4.6,-,N/A,,Clear,280,2013-03-04 02:53:00
10:53 PM,41.0,34.0,76,30.16,10.0,WNW,5.8,-,N/A,,Clear,300,2013-03-04 03:53:00
11:53 PM,42.1,33.1,70,30.17,10.0,WNW,6.9,-,N/A,,Clear,290,2013-03-04 04:53:00